Temperature
16 16 16 16 13 12 13 14 16 18 19 21 22 22 20 20 20 20 20 20 19 18 17 16 16 16 16 15 15 15 15 15 15 15 15 14 14 14 13 13 13 13 13 13 13 13 13 13 12
15 15 15 15 12 12 13 14 16 18 20 22 22 21 20 19 20 20 20 19 19 18 17 16 15 15 15 15 15 15 15 15 14 14 14 14 14 13 13 13 13 13 13 13 13 13 12 12 12
15 15 15 12 12 13 14 16 17 19 21 21 21 21 20 20 20 21 21 19 18 17 17 16 15 15 15 15 15 15 14 14 14 14 14 13 13 13 13 13 12 12 12 13 13 13 12 12 12
15 15 14 12 13 14 15 16 17 18 20 21 21 19 20 20 21 21 20 19 18 17 16 16 15 15 15 15 15 14 14 14 14 13 13 13 13 12 12 12 12 12 12 12 12 12 12 12 12
14 14 13 12 13 15 15 17 18 18 19 21 20 18 19 20 20 21 20 19 18 17 16 16 15 15 15 14 14 14 14 13 13 13 13 13 12 12 12 12 12 12 12 12 12 12 12 12 11
14 12 12 13 14 15 16 18 18 17 18 20 19 18 18 19 20 20 20 19 18 17 16 15 15 15 14 14 14 14 13 13 13 13 13 12 12 12 12 12 12 12 12 12 12 12 12 12 11
13 12 12 13 14 15 17 18 18 17 17 20 20 17 17 18 19 19 19 18 17 16 16 15 14 14 14 14 14 13 13 13 13 13 13 12 12 12 12 12 12 12 12 12 12 12 12 12 11
13 12 13 13 14 15 17 19 20 19 19 21 21 17 16 17 18 18 17 16 16 15 15 15 14 14 14 14 13 13 13 13 13 13 13 12 12 12 12 12 12 12 12 12 12 12 12 11 11
13 12 12 13 14 15 18 18 19 20 21 20 21 21 21 19 17 16 15 15 15 14 14 14 14 14 14 13 13 13 13 13 13 12 12 12 12 12 12 12 12 12 12 12 12 12 12 11 11
12 12 13 15 15 16 17 18 19 19 18 18 19 20 20 18 17 16 15 15 14 14 14 14 14 14 14 13 13 13 13 13 13 13 13 12 12 12 12 12 12 12 12 12 11 11 11 11 11
11 12 13 15 16 16 16 17 18 18 17 18 19 19 18 17 16 16 16 17 17 16 15 14 14 14 14 14 13 13 13 13 13 13 13 12 12 12 12 12 11 11 11 11 11 11 11 11 11
11 12 14 15 16 16 16 17 17 18 19 20 21 20 18 17 16 17 17 17 16 15 15 15 14 14 14 14 13 13 13 13 13 13 12 12 12 12 12 12 12 12 12 11 11 11 11 11 11
11 12 14 14 15 15 16 16 17 17 19 19 19 19 18 18 18 18 18 17 16 16 15 15 15 14 14 14 14 13 13 13 13 13 13 12 13 12 12 12 12 12 11 11 11 11 11 11 10
11 11 12 13 14 15 15 15 16 17 18 18 18 18 18 18 18 17 16 16 16 16 16 15 15 15 14 14 14 14 13 13 13 13 13 13 13 12 12 12 12 11 11 11 11 11 11 10 10
11 11 11 12 13 14 15 14 15 17 17 17 17 18 18 18 17 17 17 17 18 17 16 16 16 15 14 14 14 14 14 13 13 13 13 13 12 12 12 12 12 11 11 11 11 10 10 10 10
10 10 10 12 13 14 14 13 15 17 17 16 16 17 17 17 17 18 18 18 18 17 17 16 15 15 15 15 14 14 14 13 13 13 13 13 12 12 12 12 12 11 11 11 11 10 10 10 10
9 9 9 11 13 13 13 13 14 17 16 16 16 16 17 17 17 17 17 18 17 17 17 16 16 15 15 15 14 14 14 13 13 13 13 13 12 12 12 12 12 11 11 11 10 10 10 10 10
8 8 9 10 12 13 12 13 14 16 16 15 16 16 17 17 18 18 17 17 17 17 17 16 16 16 15 14 14 13 13 13 13 13 13 13 12 12 12 12 11 11 11 11 10 10 10 10 10
8 9 9 10 12 12 12 12 13 14 14 14 15 16 16 17 19 18 18 17 17 17 16 16 16 15 15 14 14 13 13 13 13 13 13 13 12 12 12 12 11 11 11 11 10 10 10 10 10
8 8 8 10 11 12 11 12 13 14 14 15 15 16 17 17 18 18 18 17 17 17 17 16 16 16 15 15 15 15 14 13 13 13 13 12 12 12 12 12 11 11 11 10 10 10 10 10 9
8 8 8 9 10 11 11 11 12 13 14 15 16 17 17 18 18 18 18 18 18 17 17 17 17 16 16 15 15 14 13 12 12 12 12 12 12 12 12 12 11 11 11 11 10 10 10 10 10
7 9 9 9 9 9 10 9 11 12 13 14 15 16 17 18 18 18 18 18 18 18 18 18 17 17 16 15 14 14 14 13 14 14 13 13 12 12 12 11 11 11 11 11 10 10 10 10 10
8 9 9 9 9 8 9 9 10 11 12 14 14 16 17 18 18 19 19 19 19 19 18 18 18 17 17 16 15 15 15 15 14 14 13 13 12 12 12 11 11 11 11 11 10 10 10 10 10
8 8 8 8 7 7 8 8 9 11 12 13 14 16 17 18 18 19 19 19 19 19 19 18 18 17 17 16 16 15 15 15 14 14 13 13 13 12 12 12 11 11 11 11 11 10 10 10 10
7 6 6 6 6 7 9 9 9 11 12 13 14 15 17 18 18 18 19 19 19 19 18 18 18 18 17 16 16 16 16 15 15 15 14 14 13 13 13 12 12 11 11 11 11 10 10 10 10
6 6 6 6 6 7 9 9 10 11 12 14 15 16 16 17 18 18 19 19 19 19 19 18 18 18 17 17 16 16 16 15 15 15 14 14 14 14 14 13 12 11 11 11 10 10 10 10 10
6 6 7 6 6 7 8 9 9 10 11 12 13 14 15 16 17 18 18 19 19 19 19 18 18 18 18 17 17 16 16 15 15 15 14 14 14 14 13 13 12 11 11 11 10 10 10 10 10
6 6 6 6 6 7 8 8 9 10 11 12 12 13 14 15 16 17 18 18 18 19 19 18 18 18 18 18 17 16 16 16 15 15 14 14 14 13 13 13 12 11 11 10 10 10 10 10 9
5 6 5 5 6 6 7 8 10 10 11 12 12 13 14 15 16 16 17 17 18 18 18 18 18 18 18 17 17 17 16 16 15 14 14 14 14 13 13 12 12 11 11 10 10 10 10 9 9
5 5 5 5 5 5 6 8 10 10 10 11 11 12 13 14 15 15 16 17 17 17 18 18 17 17 17 17 17 17 16 16 15 15 14 14 13 13 13 12 12 11 11 10 10 10 10 9 9
Wind_Speed
4 3 4 4 3 1 6 8 6 5 5 6 5 5 6 6 6 5 5 14 16 19 22 27 27 26 26 25 24 22 21 21 20 20 19 19 18 18 18 17 17 17 17 17 17 17 17 16 16
1 3 4 4 4 5 8 8 11 15 9 3 1 3 4 2 2 8 9 14 20 20 22 24 27 27 26 25 24 23 22 21 20 20 19 19 18 18 17 17 17 17 16 17 17 16 16 15 15
1 3 4 4 6 9 8 8 14 14 11 5 2 1 6 7 7 9 10 19 20 18 21 24 28 27 26 25 24 23 22 21 21 20 19 19 18 18 18 17 16 16 16 16 16 15 15 14 14
1 2 2 4 13 12 9 7 3 5 6 5 5 3 3 3 8 9 18 21 20 16 19 25 28 27 26 25 25 23 22 21 21 20 20 19 19 18 18 17 16 16 16 16 15 14 14 13 13
2 3 5 9 15 9 10 12 8 7 5 3 4 5 2 3 8 17 21 21 20 16 18 24 27 26 26 25 25 24 23 21 21 20 19 19 19 18 17 17 16 16 15 15 14 13 13 12 12
2 3 7 14 15 10 11 11 7 9 8 5 4 5 1 3 14 19 20 19 18 17 17 23 26 26 26 25 24 24 23 22 21 20 20 19 19 18 17 16 16 15 14 13 12 12 12 11 11
5 5 10 10 11 12 13 9 9 10 10 8 7 6 3 5 12 16 16 16 16 15 15 16 22 24 25 24 24 24 23 22 22 20 20 19 19 18 17 16 16 14 13 12 12 11 11 10 9
5 4 9 10 12 13 9 7 8 11 10 6 7 11 8 10 12 15 15 14 15 13 12 13 16 19 20 21 23 23 23 22 22 21 20 20 18 17 17 16 15 14 13 12 11 10 9 8 7
5 7 14 13 11 9 6 6 7 5 5 3 4 8 10 19 19 18 16 14 15 15 13 12 13 14 17 18 21 22 22 22 21 20 21 19 16 16 15 15 14 13 12 11 10 9 7 6 5
8 14 19 10 7 6 6 7 5 3 2 1 2 3 14 22 23 23 22 22 21 20 17 14 13 14 15 17 18 18 17 18 18 18 18 16 16 15 14 15 14 13 11 10 9 8 6 4 3
8 12 11 11 10 8 8 9 5 3 6 6 7 12 20 22 23 23 23 23 23 21 19 17 15 15 14 11 14 13 14 15 16 18 18 17 15 13 12 11 11 11 10 8 7 6 4 3 2
8 10 10 10 10 10 10 8 7 8 10 8 11 20 23 24 24 24 24 21 19 21 20 18 17 15 13 12 11 11 11 11 12 16 18 15 10 9 9 9 9 9 8 7 5 4 4 3 3
12 10 11 11 11 12 12 12 10 11 9 5 9 17 23 24 23 21 20 20 19 21 20 20 18 17 14 12 11 11 10 12 14 15 17 16 10 7 8 8 10 10 9 8 6 4 4 3 3
8 9 11 11 12 10 12 14 10 12 5 6 11 16 19 22 21 16 15 17 20 21 21 20 20 18 15 13 11 10 12 13 15 15 17 18 14 11 9 7 8 9 10 9 8 6 4 3 3
7 9 12 13 12 9 8 14 15 13 6 8 12 15 17 17 17 20 23 23 23 23 21 21 21 19 18 16 13 12 13 14 13 15 18 18 17 15 11 7 7 9 11 10 7 5 4 3 2
5 8 10 11 11 10 10 18 14 10 10 12 12 13 15 16 17 18 20 20 21 20 21 22 20 20 19 16 14 12 13 13 13 15 17 19 19 17 13 8 7 11 11 8 4 3 3 2 2
6 9 13 10 10 9 12 13 10 9 10 12 12 13 14 15 15 15 16 18 20 21 22 22 20 21 20 17 13 12 12 12 13 15 15 18 19 19 14 9 9 12 8 5 5 3 3 3 3
8 9 9 11 7 10 14 14 10 8 11 13 13 13 14 16 19 18 18 18 19 20 21 22 20 20 18 14 11 10 10 10 11 13 14 17 18 18 15 10 10 11 6 5 4 4 3 3 3
9 10 11 10 8 9 14 16 14 12 10 12 13 14 15 18 18 18 19 19 19 19 21 22 21 20 18 15 15 14 14 12 11 11 15 18 18 18 14 8 9 8 7 7 7 4 4 2 3
14 15 12 10 8 9 11 15 14 13 13 13 14 15 16 16 14 15 17 19 21 23 24 24 23 22 21 18 16 13 11 9 9 8 12 17 17 17 15 11 9 9 7 8 7 5 4 3 3
15 15 13 10 8 8 8 12 14 13 13 14 14 14 15 18 18 17 18 20 21 23 25 24 25 23 22 17 11 9 7 5 6 9 11 13 17 17 15 13 11 10 9 9 8 7 7 5 4
14 11 12 11 7 6 6 8 11 12 14 17 17 16 16 16 17 17 18 19 21 24 24 24 24 23 22 19 17 17 14 13 13 12 11 11 14 15 16 15 13 11 9 9 9 8 6 6 5
8 7 9 10 9 8 7 7 8 9 15 18 18 17 17 16 16 17 18 20 21 22 22 23 23 23 22 22 21 20 16 13 8 8 11 11 11 13 15 15 13 12 10 10 10 8 7 6 6
5 4 5 6 6 11 13 10 8 9 15 15 16 16 16 16 16 16 16 17 19 20 20 21 23 23 23 23 22 22 20 15 12 12 13 12 9 10 13 14 13 12 10 10 10 10 10 8 7
5 4 4 5 7 9 9 10 10 10 11 15 16 16 16 15 15 15 15 16 17 19 20 21 23 24 23 24 23 23 22 20 18 17 16 13 10 11 14 13 13 11 10 11 10 10 10 9 8
8 9 7 6 6 4 6 11 8 9 10 10 12 11 12 14 14 15 16 17 18 20 21 21 24 23 24 24 23 22 20 17 15 15 13 15 13 13 12 14 12 12 11 11 10 9 9 8 9
5 8 6 3 2 4 6 6 7 6 8 9 10 9 11 12 13 14 14 15 17 19 21 22 23 22 23 24 22 20 19 18 16 15 13 12 10 9 11 13 12 11 11 11 11 9 9 8 9
5 4 3 5 5 6 6 7 6 6 10 11 10 10 11 10 11 12 12 13 15 17 18 19 21 23 21 23 21 18 19 19 16 14 15 14 13 11 12 13 13 12 11 11 11 8 8 9 8
3 3 3 4 4 4 5 6 5 8 8 9 10 10 10 9 8 9 9 10 11 12 15 18 19 18 18 20 19 18 18 17 15 15 15 14 13 13 14 14 13 13 12 11 11 11 10 10 9
4 4 4 4 4 4 4 7 3 3 3 4 6 6 6 6 6 6 7 7 7 10 12 15 17 18 18 18 17 18 17 16 16 16 15 14 13 13 13 13 13 13 12 12 13 12 11 11 11
Wind_Direction
226 123 92 73 72 171 233 235 231 247 234 221 206 160 158 165 170 180 133 141 141 154 160 158 157 152 148 144 140 138 136 134 133 131 129 127 125 122 119 115 113 110 107 105 103 100 99 98 96
155 128 83 87 151 218 244 228 228 238 226 235 202 150 127 150 131 124 136 150 147 153 156 157 156 153 150 146 143 141 139 137 135 133 132 130 128 126 122 118 115 112 110 108 105 103 101 100 98
194 154 133 144 193 210 229 223 224 240 245 235 228 132 150 159 149 157 157 149 147 153 155 158 156 154 151 148 146 143 141 140 138 137 135 133 129 128 124 121 119 116 113 111 109 106 105 103 98
126 114 132 194 228 224 223 237 232 264 272 219 172 120 124 163 167 159 144 146 147 151 154 159 157 155 152 150 148 146 144 142 140 139 137 135 133 129 125 123 122 121 118 115 113 110 108 106 101
115 149 203 232 237 239 236 247 259 269 262 226 153 143 136 336 136 137 144 147 149 151 154 159 157 156 155 153 152 150 148 146 144 142 141 138 135 132 129 129 127 125 122 120 117 115 112 109 103
176 168 205 229 237 244 245 244 248 254 252 238 158 140 136 122 135 144 147 148 150 152 154 159 158 157 157 156 155 154 152 151 148 146 145 140 137 136 135 134 133 130 127 125 123 120 117 113 104
185 195 222 228 239 245 244 236 225 236 240 224 163 138 138 158 149 143 143 143 147 151 154 156 158 158 158 158 157 156 155 154 152 151 148 144 142 142 141 140 138 135 133 132 128 124 121 116 107
187 202 231 228 230 241 239 229 226 218 228 209 155 153 176 184 148 135 136 140 146 152 155 154 155 157 158 158 158 157 156 155 155 152 148 146 147 147 145 144 142 140 138 135 132 129 126 121 110
175 216 228 222 220 237 239 245 257 236 200 204 185 181 175 148 140 138 141 147 155 160 160 156 154 154 155 156 159 157 157 159 156 151 149 147 146 146 146 147 147 145 143 141 139 137 133 125 111
197 224 229 226 220 239 256 252 263 290 249 234 48 81 133 145 151 155 160 164 167 169 168 165 160 158 156 160 159 157 157 157 154 151 149 147 146 147 150 152 154 153 152 151 149 146 140 128 109
209 227 236 242 248 259 269 272 270 234 244 217 176 156 152 157 161 166 170 172 173 171 170 170 166 163 161 159 158 157 155 155 154 153 152 151 150 152 155 157 159 159 157 154 155 149 151 152 149
241 245 238 246 253 257 260 268 273 245 240 226 179 162 162 166 172 175 175 175 172 172 174 172 169 167 166 161 163 160 160 160 161 163 160 156 154 155 159 159 162 162 161 160 161 164 181 187 193
243 256 251 251 253 254 260 258 259 261 258 214 168 164 171 176 180 181 177 173 171 175 176 175 173 172 170 165 169 169 168 169 169 169 169 166 163 166 167 169 171 173 173 173 177 183 190 196 191
248 257 267 263 257 252 250 260 251 255 231 180 172 179 183 184 182 175 172 174 177 179 178 176 176 175 172 174 174 174 174 173 174 176 177 175 172 171 171 172 175 180 183 185 185 186 177 178 162
262 264 267 255 249 241 242 258 243 242 214 203 193 190 192 194 187 183 182 181 182 182 179 179 178 177 176 177 177 176 178 177 179 182 182 181 178 177 175 174 179 187 191 187 182 181 162 156 146
234 236 243 244 233 231 216 245 246 228 206 216 211 200 199 200 197 195 190 186 183 180 179 180 180 180 180 180 179 178 180 180 183 184 185 185 183 181 177 176 185 188 184 176 166 167 156 159 154
216 225 232 245 226 218 216 242 245 224 211 220 216 208 204 204 205 203 196 191 186 183 181 181 182 181 182 180 178 177 179 183 185 185 186 188 186 184 180 181 185 183 176 172 175 170 160 165 171
210 219 229 229 229 220 230 243 249 230 214 221 221 214 210 208 207 202 199 194 190 186 183 183 183 182 180 178 174 175 180 185 186 187 189 187 188 185 181 181 181 178 172 176 172 165 160 164 169
248 246 253 252 251 234 238 246 247 239 224 226 224 218 214 216 213 203 199 195 190 188 186 185 185 183 180 182 183 185 190 189 190 191 189 188 188 186 183 181 180 179 181 181 171 159 161 170 145
249 248 254 270 261 249 249 252 248 243 233 226 225 222 217 218 217 206 200 195 192 191 190 188 188 185 185 188 189 189 184 186 188 187 190 190 188 187 188 183 184 184 179 178 178 164 158 173 162
244 239 241 255 282 271 265 263 247 245 239 235 229 225 219 216 214 208 200 197 195 194 192 191 190 188 189 185 177 165 157 156 177 191 196 195 191 191 190 188 185 185 184 189 189 179 171 182 198
247 238 242 248 251 253 221 255 246 234 238 235 232 229 225 220 215 210 202 198 197 198 194 192 191 190 189 183 180 179 184 191 196 193 195 192 193 192 192 190 189 189 190 190 192 188 181 173 191
244 239 239 242 243 255 239 247 258 224 234 234 230 227 227 221 214 210 206 201 199 197 194 194 191 191 189 187 187 188 194 197 185 179 184 190 194 194 193 192 193 194 195 193 191 188 187 185 184
241 250 251 242 234 242 229 226 261 218 223 230 231 228 226 222 217 213 208 201 199 196 194 192 191 192 189 189 190 193 195 189 179 185 190 194 195 196 196 195 195 196 196 195 194 192 191 193 189
208 194 209 215 220 237 201 213 245 230 225 226 230 231 227 221 217 213 207 201 199 195 194 192 191 193 191 191 193 196 197 193 193 193 195 194 195 200 200 197 197 197 197 194 191 193 197 195 193
214 197 203 204 212 242 199 224 243 235 236 235 236 235 228 220 217 214 209 203 200 197 194 193 193 193 191 193 196 197 196 196 200 197 196 198 202 203 195 195 196 196 194 193 191 196 198 196 200
209 209 215 231 259 257 235 250 283 256 243 239 242 237 231 225 222 220 214 208 202 197 196 194 193 194 193 194 195 195 195 196 198 195 194 198 199 194 189 193 195 195 193 192 190 199 200 196 204
216 194 180 202 206 234 248 244 239 235 227 232 236 240 239 233 227 224 218 211 206 201 196 194 194 195 193 193 194 195 195 197 195 191 195 196 195 189 186 190 194 195 194 193 193 197 197 197 205
208 201 214 219 220 206 239 255 221 222 227 228 234 240 238 232 231 230 224 212 204 198 193 193 194 194 193 194 193 193 194 194 191 193 196 196 191 188 189 191 193 196 197 195 197 201 195 200 204
208 199 195 222 245 227 241 263 300 305 293 263 258 259 264 252 242 233 225 204 193 193 192 192 193 193 193 192 191 193 191 189 191 195 194 191 191 191 190 189 193 196 196 196 199 202 199 201 204
Height
1505 1506 1507 1509 1512 1517 1514 1502 1492 1487 1484 1480 1479 1479 1479 1482 1486 1490 1486 1486 1490 1494 1499 1504 1508 1512 1515 1517 1520 1522 1524 1525 1527 1528 1529 1530 1532 1533 1534 1535 1536 1537 1537 1538 1538 1538 1539 1539 1540
1503 1505 1507 1507 1513 1518 1509 1494 1488 1480 1477 1477 1478 1478 1477 1478 1479 1480 1482 1486 1490 1494 1498 1502 1507 1511 1514 1516 1519 1521 1523 1525 1527 1528 1529 1530 1531 1533 1534 1535 1536 1537 1537 1538 1538 1539 1539 1540 1540
1501 1502 1504 1505 1508 1505 1496 1483 1479 1475 1475 1476 1476 1476 1476 1476 1477 1478 1481 1485 1489 1494 1498 1502 1506 1510 1513 1516 1518 1520 1523 1525 1526 1528 1529 1530 1532 1533 1534 1535 1536 1537 1538 1538 1539 1540 1540 1541 1541
1499 1501 1501 1503 1497 1488 1482 1476 1474 1474 1473 1473 1473 1475 1476 1477 1477 1479 1481 1485 1488 1493 1497 1501 1505 1509 1512 1515 1517 1520 1522 1524 1526 1527 1529 1530 1531 1533 1534 1535 1536 1537 1538 1539 1540 1540 1541 1541 1542
1496 1496 1498 1497 1488 1480 1475 1472 1473 1473 1472 1470 1471 1472 1474 1476 1477 1479 1481 1484 1487 1492 1496 1501 1504 1508 1511 1514 1517 1519 1521 1523 1525 1527 1528 1530 1531 1532 1534 1535 1536 1537 1538 1539 1540 1541 1541 1542 1542
1492 1491 1495 1490 1482 1475 1471 1470 1472 1471 1469 1468 1469 1471 1472 1474 1475 1478 1481 1484 1488 1491 1496 1500 1504 1507 1510 1513 1516 1518 1521 1523 1525 1526 1528 1530 1531 1532 1534 1535 1536 1538 1539 1539 1540 1541 1542 1542 1543
1487 1487 1486 1482 1478 1473 1466 1467 1468 1468 1466 1465 1465 1469 1471 1473 1475 1478 1481 1484 1488 1492 1495 1499 1503 1507 1510 1513 1515 1518 1520 1522 1524 1526 1528 1529 1531 1532 1534 1535 1537 1538 1539 1540 1541 1542 1542 1543 1544
1481 1482 1479 1476 1473 1468 1462 1463 1462 1462 1461 1462 1462 1464 1467 1470 1474 1477 1481 1484 1488 1492 1495 1498 1502 1505 1509 1512 1515 1517 1519 1522 1524 1526 1527 1529 1531 1532 1534 1535 1537 1538 1539 1540 1541 1542 1543 1544 1544
1476 1479 1472 1467 1466 1462 1459 1460 1458 1458 1458 1458 1458 1459 1460 1465 1471 1476 1480 1484 1488 1491 1494 1497 1500 1504 1507 1510 1514 1516 1519 1521 1523 1525 1527 1528 1530 1532 1533 1535 1537 1538 1539 1540 1541 1542 1543 1544 1545
1470 1468 1460 1458 1458 1458 1457 1457 1456 1456 1455 1455 1455 1457 1459 1462 1467 1471 1475 1479 1483 1487 1491 1495 1499 1502 1506 1509 1512 1515 1518 1520 1522 1524 1526 1528 1530 1532 1533 1535 1537 1538 1539 1540 1541 1542 1543 1544 1545
1461 1458 1455 1456 1456 1456 1455 1454 1454 1455 1454 1451 1452 1454 1456 1460 1463 1467 1470 1474 1477 1483 1488 1492 1496 1500 1503 1506 1510 1513 1516 1518 1521 1523 1525 1527 1529 1531 1533 1534 1536 1538 1539 1540 1541 1543 1544 1545 1545
1457 1453 1453 1453 1454 1454 1453 1452 1451 1450 1449 1448 1449 1450 1453 1456 1459 1463 1467 1471 1476 1481 1485 1489 1494 1497 1501 1505 1508 1511 1514 1516 1519 1522 1524 1526 1528 1530 1532 1534 1536 1537 1539 1540 1541 1542 1543 1544 1545
1454 1451 1451 1451 1451 1451 1451 1450 1448 1446 1446 1447 1447 1449 1450 1453 1456 1460 1464 1468 1473 1477 1482 1486 1491 1495 1499 1502 1506 1509 1512 1515 1518 1520 1523 1525 1527 1529 1531 1533 1535 1537 1538 1540 1541 1542 1543 1544 1545
1450 1450 1449 1448 1448 1448 1448 1446 1446 1441 1443 1445 1445 1447 1448 1450 1453 1458 1463 1466 1470 1474 1479 1483 1487 1492 1496 1500 1503 1506 1510 1513 1516 1519 1521 1524 1526 1528 1530 1532 1534 1536 1538 1539 1541 1542 1543 1543 1544
1450 1449 1447 1444 1444 1443 1446 1444 1439 1438 1441 1442 1443 1444 1446 1449 1451 1453 1457 1461 1465 1470 1475 1480 1484 1489 1493 1497 1501 1505 1508 1511 1514 1517 1519 1522 1524 1527 1529 1531 1533 1535 1537 1538 1540 1541 1542 1543 1544
1447 1448 1447 1439 1439 1439 1446 1440 1431 1434 1437 1438 1440 1441 1444 1446 1448 1451 1454 1458 1462 1467 1471 1476 1481 1485 1490 1494 1498 1502 1505 1509 1512 1515 1517 1520 1522 1525 1527 1529 1531 1534 1535 1537 1538 1540 1541 1542 1542
1446 1446 1443 1438 1434 1435 1437 1433 1428 1430 1432 1433 1435 1437 1439 1442 1445 1448 1452 1455 1459 1463 1468 1472 1477 1481 1486 1491 1495 1499 1503 1506 1509 1512 1515 1517 1520 1523 1525 1528 1530 1532 1533 1535 1537 1538 1539 1540 1541
1442 1441 1438 1437 1431 1432 1432 1429 1426 1426 1427 1428 1430 1432 1434 1436 1439 1443 1447 1452 1456 1460 1464 1468 1473 1477 1483 1488 1493 1496 1500 1503 1506 1509 1512 1514 1517 1520 1523 1525 1528 1530 1531 1533 1535 1536 1538 1539 1540
1439 1438 1438 1433 1429 1430 1428 1426 1423 1421 1423 1423 1424 1426 1428 1430 1434 1438 1442 1447 1451 1456 1460 1464 1469 1473 1478 1483 1486 1490 1494 1498 1501 1505 1508 1511 1514 1517 1520 1522 1525 1527 1529 1531 1533 1534 1536 1537 1538
1438 1438 1437 1433 1428 1427 1426 1423 1419 1417 1417 1417 1418 1420 1422 1425 1428 1432 1436 1440 1445 1449 1453 1458 1463 1467 1472 1476 1480 1485 1489 1494 1498 1501 1505 1508 1511 1514 1516 1519 1521 1524 1526 1528 1530 1531 1533 1534 1536
1434 1434 1434 1433 1428 1426 1427 1422 1416 1411 1411 1411 1411 1413 1415 1418 1421 1425 1429 1433 1438 1442 1446 1451 1456 1461 1466 1471 1477 1482 1487 1491 1494 1497 1500 1503 1506 1509 1512 1515 1518 1520 1522 1524 1526 1528 1530 1531 1533
1430 1427 1428 1429 1431 1431 1428 1427 1413 1408 1406 1404 1404 1406 1407 1411 1414 1418 1422 1426 1430 1435 1440 1445 1450 1455 1460 1466 1470 1474 1477 1480 1484 1489 1493 1498 1501 1505 1508 1511 1514 1516 1519 1521 1523 1525 1527 1528 1529
1425 1423 1425 1426 1429 1431 1427 1428 1412 1404 1402 1397 1396 1397 1399 1403 1407 1410 1414 1418 1423 1428 1433 1438 1444 1448 1454 1459 1463 1467 1471 1476 1481 1485 1489 1493 1497 1500 1503 1506 1509 1511 1514 1516 1519 1521 1523 1524 1526
1423 1424 1424 1425 1429 1429 1420 1424 1411 1400 1392 1389 1389 1390 1392 1395 1399 1403 1407 1412 1416 1422 1427 1431 1436 1441 1446 1452 1456 1460 1465 1470 1475 1479 1483 1487 1491 1495 1498 1501 1504 1506 1509 1512 1514 1517 1518 1520 1522
1422 1427 1430 1431 1429 1422 1410 1413 1401 1389 1383 1382 1382 1383 1385 1388 1392 1396 1400 1404 1409 1414 1419 1424 1429 1434 1439 1444 1449 1454 1459 1464 1468 1472 1477 1481 1485 1488 1491 1495 1498 1501 1504 1507 1510 1512 1514 1516 1517
1418 1422 1426 1427 1423 1415 1406 1402 1390 1381 1378 1377 1378 1378 1379 1381 1384 1388 1392 1397 1401 1406 1411 1416 1421 1426 1431 1437 1442 1447 1453 1458 1462 1467 1471 1475 1478 1482 1486 1489 1492 1496 1499 1502 1505 1507 1509 1511 1512
1416 1416 1416 1419 1417 1416 1405 1395 1386 1377 1375 1374 1373 1373 1373 1375 1378 1381 1385 1389 1394 1399 1403 1408 1413 1419 1424 1429 1435 1440 1446 1451 1456 1460 1465 1469 1473 1477 1481 1484 1488 1491 1494 1497 1499 1501 1504 1506 1508
1413 1413 1415 1416 1416 1412 1403 1394 1387 1377 1372 1370 1369 1369 1368 1370 1372 1375 1378 1382 1387 1391 1397 1402 1407 1412 1417 1423 1428 1433 1439 1444 1449 1454 1459 1463 1467 1472 1475 1479 1482 1485 1488 1491 1494 1496 1498 1501 1502
1413 1414 1413 1413 1410 1409 1402 1390 1373 1370 1367 1366 1365 1365 1365 1366 1367 1369 1372 1376 1380 1385 1390 1395 1400 1405 1411 1416 1422 1427 1432 1438 1443 1448 1452 1457 1462 1466 1469 1473 1477 1480 1483 1486 1488 1491 1493 1495 1497
1411 1412 1414 1417 1413 1407 1402 1387 1367 1367 1365 1364 1363 1363 1363 1363 1364 1366 1368 1371 1375 1379 1383 1388 1393 1398 1404 1409 1415 1420 1426 1431 1436 1441 1446 1451 1456 1460 1464 1468 1471 1474 1477 1480 1483 1485 1487 1489 1491